Regional Weather Roundup
Issued by NWS Charleston, WV

Home | Current Version | Previous Version | Graphics & Text | Print | Product List | Glossary On
Versions: 1 2 3 4 5 6 7 8 9 10 11 12 13 14 15 16 17 18 19 20 21 22 23 24 25 26 27 28 29 30 31 32 33 34 35 36 37 38 39 40 41 42 43 44 45 46 47 48 49 50
000
ASUS41 KRLX 171110
RWRRLX
West Virginia Regional Weather Roundup
National Weather Service Charleston WV
600 AM EST TUE JAN 17 2017

Note: "fair" indicates few or no clouds below 12,000 feet with no
significant weather and/or obstructions to visibility.

WVZ003-171200-
Northern Panhandle of West Virginia

CITY           SKY/WX    TMP DP  RH WIND       PRES   REMARKS
WHEELING       LGT RAIN  50  48  93 S10       30.00F FOG
$$

WVZ009-171200-
Northwest West Virginia

CITY           SKY/WX    TMP DP  RH WIND       PRES   REMARKS
PARKERSBURG    LGT RAIN  54  51  90 S10       30.05S
$$

WVZ006-171200-
Western West Virginia

CITY           SKY/WX    TMP DP  RH WIND       PRES   REMARKS
HUNTINGTON     HVY RAIN  56  54  93 S12       30.02F FOG
$$

WVZ015-171200-
West Central West Virginia

CITY           SKY/WX    TMP DP  RH WIND       PRES   REMARKS
CHARLESTON     RAIN      49  48  97 VRB3      30.07R FOG
$$

WVZ022-031-171200-
North Central West Virginia

CITY           SKY/WX    TMP DP  RH WIND       PRES   REMARKS
CLARKSBURG     LGT RAIN  50  48  93 S8        30.06S
MORGANTOWN     CLOUDY    51  46  83 CALM      30.04F
$$

WVZ025-035-042-045-171200-
Southern West Virginia

CITY           SKY/WX    TMP DP  RH WIND       PRES   REMARKS
BECKLEY        LGT RAIN  50  46  86 SE5       30.13R
LOGAN          LGT RAIN  54  52  94 S7        30.09S
BLUEFIELD      CLOUDY    51  45  79 S6        30.14F
LEWISBURG      DRIZZLE   44  43  99 CALM      30.15S
$$

WVZ047-171200-
Northern Mountains of West Virginia

CITY           SKY/WX    TMP DP  RH WIND       PRES   REMARKS
ELKINS         LGT RAIN  46  43  89 CALM      30.11R FOG
$$

WVZ052-171200-
Eastern Panhandle of West Virginia

CITY           SKY/WX    TMP DP  RH WIND       PRES   REMARKS
MARTINSBURG    CLOUDY    36  34  92 NE3       30.16F FOG
PETERSBURG     CLOUDY    40  37  90 CALM      30.14F
$$




USA.gov is the U.S. government's official web portal to all federal, state and local government web resources and services.